Content
SEND FEEDBACK

Daily
Averages
Monthly
Summary
Palau

KOROR - TERMINAL PORT, PALAU


Home > Oceania > Palau
Elevation: 10 feet     Latitude: 07 20N     Longitude: 134 27E

WEATHER
 
SELECT A DAY
Number of Records: 165,393;   Date Range: 7/1/96 - 10/20/14
 
SHARE

PRINT THIS DATA

[ ← Previous Day ]
WEATHER ALMANAC - JANUARY 31, 2013
[ Next Day → ]
[ °C ]   °F
Weather ElementAverageHighLow
Temperature82.5 °F89 °F (4:00 pm)77 °F (6:50 am)
Dewpoint73.8 °F75.2 °F (12:50 pm)71.6 °F (1:53 am)
Humidity74 %84 % (7:58 pm)53 % (4:00 pm)
Barometer29.89 in29.97 in (9:59 am)29.86 in (2:50 pm)
Wind Speed9.1 mph16.1 mph (10:50 am)
Wind Gust21.9 mph (9:59 am)
Weather ElementAverage
Visibility14.8 mi
Wind DirectionENE (63.3 °)

Weather ElementTotal
Precipitation---
Cooling Degree Days18 (Base 65)
Growing Degree Days33 (Base 50)
Averaged from 27 records on January 31, 2013
WEATHER CONDITIONS BREAKOUT
WIND DIRECTION BREAKOUT
WEATHER BY HOUR - JANUARY 31, 2013
[ °C ]   °F
Local TimeTemperatureDewpointHumidityBarometerVisibilityWind DirectionWind SpeedGust SpeedPrecipitationEventsConditions
1:53 AM80.6 °F71.6 °F74 %29.90 in15.0 miENE (60°)5.8 mphMostly Cloudy
2:53 AM78.8 °F73.4 °F83 %29.88 in15.0 miENE (60°)6.9 mphMostly Cloudy
3:52 AM78.8 °F73.4 °F83 %29.87 in15.0 miENE (60°)4.6 mphMostly Cloudy
4:00 AM80.0 °F72.0 °F70 %29.91 in15.0 miNE (50°)4.6 mph
4:50 AM78.8 °F73.4 °F83 %29.87 in12.0 miENE (70°)10.4 mphRainLight Rain Showers
5:52 AM78.8 °F71.6 °F78 %29.88 in14.0 miENE (70°)6.9 mphMostly Cloudy
6:50 AM77.0 °F71.6 °F83 %29.88 in14.0 miENE (60°)2.3 mphMostly Cloudy
7:59 AM78.8 °F71.6 °F78 %29.90 in15.0 miENE (70°)5.8 mphMostly Cloudy
8:51 AM82.4 °F73.4 °F74 %29.91 in15.0 miENE (70°)6.9 mphMostly Cloudy
9:59 AM84.2 °F73.4 °F70 %29.97 in15.0 miENE (70°)12.7 mph21.9 mphMostly Cloudy
10:00 AM85.0 °F72.0 °F56 %29.96 in15.0 miEast (100°)8.1 mphOvercast
10:50 AM84.2 °F73.4 °F70 %29.93 in15.0 miNE (50°)16.1 mph20.7 mphMostly Cloudy
11:50 AM86.0 °F73.4 °F66 %29.91 in15.0 miEast (80°)6.9 mph18.4 mphMostly Cloudy
12:50 PM86.0 °F75.2 °F70 %29.88 in15.0 miENE (70°)12.7 mph18.4 mphMostly Cloudy
1:50 PM86.0 °F75.2 °F70 %29.87 in15.0 miENE (70°)10.4 mphMostly Cloudy
2:50 PM86.0 °F75.2 °F70 %29.86 in15.0 miNE (50°)15.0 mph19.6 mphMostly Cloudy
3:50 PM86.0 °F75.2 °F70 %29.87 in15.0 miNE (40°)12.7 mph18.4 mphMostly Cloudy
4:00 PM89.0 °F74.0 °F53 %29.90 in15.0 miEast (90°)8.1 mphOvercast
4:50 PM86.0 °F75.2 °F70 %29.87 in15.0 miNE (50°)10.4 mph21.9 mphMostly Cloudy
5:59 PM84.2 °F75.2 °F74 %29.86 in15.0 miNE (50°)11.5 mph18.4 mphMostly Cloudy
6:58 PM82.4 °F75.2 °F79 %29.87 in15.0 miENE (60°)8.1 mph15.0 mphMostly Cloudy
7:58 PM80.6 °F75.2 °F84 %29.87 in15.0 miENE (60°)9.2 mphMostly Cloudy
8:58 PM80.6 °F73.4 °F79 %29.88 in15.0 miENE (70°)9.2 mph19.6 mphMostly Cloudy
9:59 PM80.6 °F75.2 °F84 %29.89 in15.0 miENE (60°)6.9 mph15.0 mphMostly Cloudy
10:00 PM85.0 °F73.0 °F59 %29.93 in15.0 miNE (50°)9.2 mphOvercast
10:59 PM80.6 °F75.2 °F84 %29.89 in15.0 miENE (60°)11.5 mph18.4 mphMostly Cloudy
11:58 PM80.6 °F75.2 °F84 %29.89 in15.0 miENE (60°)12.7 mph18.4 mphMostly Cloudy
Hourly data recorded from PTRO, located miles away from Koror - Terminal Port, Palau







STORIES FROM OUR PARTNERS